Location: Unspecified
(0.0000°N, 0.0000°E)
Time: 07:17:08
(UTC+00:00)

TIROS 6 DEB - Pass Details

Date: 19 August 2024
Orbit: 609 x 625 km, 58.3° (Epoch: 04 September)

Event Time Altitude Azimuth Distance (km) Brightness Sun altitude
Exits shadow 05:09:17 17° 283° (WNW) 1,579 ? -13.2°
Maximum altitude 05:10:12 18° 299° (WNW) 1,531 ? -13.0°
Drops below altitude 10° 05:13:14 10° 342° (NNW) 1,971 ? -12.3°
Sets 05:16:09 0° 1° (N) 2,869 ? -11.6°
